User: anonymous   Login
Location: Observatorio Ernesto Juarez Davis
(29.2175°N, 110.7606°W)
Time: 15:53:04
(UTC-07:00)
Language:

Hubble Space Telescope - Orbit

View from above orbital plane
View from above orbital plane
View from above satellite
View from above satellite

Ground track
Ground track

The orbit data is extracted from the following two-line orbital elements,

1 20580U 90037B   19233.47511574  .00000348  00000-0  10229-4 0  9999
2 20580  28.4689 150.1631 0002892  93.0053 233.1926 15.09255553410531
Epoch (UTC): 21 August 2019 11:24:10
Eccentricity: 0.0002892
inclination: 28.4689°
perigee height: 536 km
apogee height: 540 km
right ascension of ascending node: 150.1631°
argument of perigee: 93.0053°
revolutions per day: 15.09255553
mean anomaly at epoch: 233.1926°
orbit number at epoch: 41053

The dashed part of the orbit path shows where the satellite is in the earth's shadow,  

DLR